HULIANWANG DIGUI-162

导读 | 豆包AI

HULIANWANG DIGUI-162(NORAD编号68136)是中国低轨互联网星座中的一颗卫星,隶属于中国互联网卫星发射任务序列。该卫星纳入商业航天发射组网框架,依托长征系列运载火箭完成发射入轨,主要服务于全球互联网覆盖建设,为地面及偏远区域提供宽带网络通信服务,助力天地一体化信息网络构建,推动空间互联网技术的应用验证与星座组网部署,是中国低轨卫星互联网建设进程中的重要组成节点,支撑我国空间通信基础设施的逐步完善。

Basic Information
目录编号:
68136
目录名称:
HULIANWANG DIGUI-162
国际标识:
2026-047H
轨道中心:
EARTH
卫星名称:
HULIANWANG DIGUI-162
卫星全名:
HULIANWANG DIGUI-162
卫星状态:
在轨 (已飞行80 天)
发射日期:
2026-03-12 UTC
国别 :
中国 (CN)
星等 :
--
Orbit Information
数据来源 国际轨道数据 AOE轨道数据
星历时间 2026-05-31T05:06:39+0800
5小时前
查看轨道信息
2026-05-28T09:00:00+0800
3天前
查看轨道信息
半长轴 7527.437km 7527.438km
偏心率 0.0000272 0.0000056
轨道倾角 50.005° 50.004°
近地点辐角 23.394° 11.699°
升交点赤经 117.976° 128.155°
平近点角 336.695° 78.739°
近地点 1149.095km 1149.258km
远地点 1149.505km 1149.344km
周期 108.325分钟 108.325分钟
每日圈数 13.293278 13.293277
Detailed Information
使用方式:
暂无
2D Orbit Map
3D Orbit Map
Orbit Altitude Analysis Chart
Orbit Inclination Analysis Chart
Orbit Comprehensive Analysis Chart
View Comprehensive Chart